Location: Bremen
(53.0793°N, 8.8017°E)
Time: 18:08:29
(UTC+01:00)

Vanguard 1 Rocket - Pass Details

Date: 04 December 2021
Orbit: 651 x 4224 km, 34.3° (Epoch: 24 January)

Event Time Altitude Azimuth Distance (km) Brightness Sun altitude
Rises 02:21:06 0° 210° (SSW) 4,523 - -50.9°
Reaches altitude 10° 02:24:17 10° 197° (SSW) 3,957 - -50.6°
Maximum altitude 02:32:55 26° 146° (SE) 3,852 - -49.5°
Exits shadow 02:33:28 26° 143° (SE) 3,915 10.5 -49.5°
Drops below altitude 10° 02:46:29 10° 100° (E) 6,394 12.0 -47.9°
Sets 02:53:39 0° 90° (E) 7,930 12.8 -46.9°
